Вернуться в каталог

SL-16 DEB

АктивенLEO
NORAD 22379·DEBRIS·🇷🇺 Russia

Запущен Dec 25, 1992 с Baikonur Cosmodrome

Loading…

Ближайшие Пролёты (ближайшие 24 часа)

TLE

СвежийSource: Space-Track

Эпоха: Sep 14, 2026, 23:05 UTC

1 22379U 92093BU  26257.96244784  .00000485  00000-0  28439-3 0  9998
2 22379  70.7018 136.2716 0084119   7.7972 352.4432 14.11590477722888

Отслеживайте SL-16 DEB в реальном времени с AllMySat

Download on the App Store